This demonstration page uses our WeatherBlox Daily Observations layout. Learn more.

Left ArrowRight Arrow

Hourly Observations for June 11, 2021

Temp ( °F °C ) Dew Point ( °F °C ) Humidity (%) Winds ( mph kmh ) Pressure ( in mb ) Visibility ( mi km ) Precip ( " mm )
12:15 am 00:15 Partly Cloudy 79 26.3 69 20.7 71 71 SSE 9 15 29.66 1004 10 16 N/A
12:35 am 00:35 Mostly Cloudy 79 26.2 69 20.6 71 71 SSE 12 19 29.65 1004 10 16 N/A
12:55 am 00:55 Mostly Cloudy 79 26.1 69 20.6 72 72 SSE 12 19 29.65 1004 10 16 N/A
1:15 am 01:15 Mostly Cloudy 79 26 69 20.5 72 72 SSE 12 19 29.64 1004 10 16 N/A
1:35 am 01:35 Partly Cloudy 78 25.8 69 20.7 74 74 SSE 13 20 29.63 1003 10 16 N/A
1:55 am 01:55 Clear 78 25.8 69 20.7 74 74 SSE 13 20 29.63 1003 10 16 N/A
2:15 am 02:15 Clear 78 25.5 69 20.8 75 75 SSE 15 24 29.63 1004 10 16 N/A
2:35 am 02:35 Clear 77 25.1 70 20.9 78 78 SSE 16 26 29.63 1003 10 16 N/A
2:55 am 02:55 Clear 77 24.9 70 21 79 79 SSE 15 24 29.63 1003 10 16 N/A
3:15 am 03:15 Clear 76 24.6 70 21.1 81 81 SSE 15 24 29.62 1003 10 16 N/A
3:35 am 03:35 Clear 76 24.3 70 21.2 83 83 SSE 14 22 29.63 1003 10 16 N/A
3:55 am 03:55 Clear 76 24.3 71 21.5 84 84 SSE 12 19 29.62 1003 10 16 N/A
4:15 am 04:15 Clear 75 24.1 71 21.6 86 86 SSE 12 19 29.61 1003 10 16 N/A
4:35 am 04:35 Clear 75 24 71 21.7 87 87 SSE 14 22 29.61 1003 10 16 N/A
4:55 am 04:55 Clear 75 24.1 72 22 88 88 S 13 20 29.63 1004 7 11 N/A
5:15 am 05:15 Clear 75 23.8 72 22 90 90 S 12 19 29.64 1004 7 11 N/A
5:35 am 05:35 Mostly Cloudy 75 23.8 72 22.1 90 90 S 12 19 29.65 1004 7 11 N/A
5:55 am 05:55 Cloudy 75 24 72 22.2 90 90 S 9 15 29.65 1004 7 11 N/A
6:15 am 06:15 Cloudy 76 24.4 72 22.4 89 89 SSW 10 17 29.65 1004 7 11 N/A
6:35 am 06:35 Cloudy 76 24.6 73 22.5 88 88 SSW 9 15 29.66 1004 7 11 N/A
6:55 am 06:55 Cloudy 76 24.7 73 22.8 89 89 SW 10 17 29.66 1004 7 11 N/A
7:15 am 07:15 Cloudy 77 25 72 22.3 85 85 W 14 22 29.67 1005 7 11 N/A
7:35 am 07:35 Mostly Cloudy 75 24.1 64 17.6 67 67 NW 13 20 29.68 1005 10 16 N/A
7:55 am 07:55 Partly Cloudy 74 23.1 55 12.7 52 52 NNW 21 33 29.71 1006 7 11 N/A
8:15 am 08:15 Sunny 73 23 54 12.3 51 51 N 22 35 29.73 1007 10 16 N/A
8:35 am 08:35 Sunny 73 23 55 12.6 52 52 N 21 33 29.75 1008 10 16 N/A
8:55 am 08:55 Sunny 73 23 55 12.9 53 53 N 22 35 29.77 1008 10 16 N/A
9:15 am 09:15 Sunny 74 23.2 55 12.6 51 51 N 28 44 29.79 1009 10 16 N/A
9:35 am 09:35 Sunny 74 23.5 53 11.9 48 48 N 28 44 29.79 1009 10 16 N/A
9:55 am 09:55 Sunny 74 23.6 53 11.9 48 48 N 30 48 29.79 1009 10 16 N/A
10:15 am 10:15 Sunny 75 23.9 54 12.1 48 48 N 26 43 29.80 1009 10 16 N/A
10:35 am 10:35 Sunny 76 24.2 54 12.4 48 48 N 30 48 29.80 1009 10 16 N/A
10:55 am 10:55 Sunny 76 24.3 54 12.1 47 47 N 29 46 29.81 1010 10 16 N/A
11:15 am 11:15 Sunny 76 24.3 53 11.9 46 46 N 28 44 29.82 1010 10 16 N/A
11:35 am 11:35 Sunny 77 24.9 54 12.2 45 45 N 25 41 29.82 1010 10 16 N/A
11:55 am 11:55 Sunny 77 25 54 12 44 44 N 23 37 29.82 1010 10 16 N/A
12:15 pm 12:15 Sunny 78 25.5 54 12.1 43 43 N 23 37 29.82 1010 10 16 N/A
12:35 pm 12:35 Sunny 78 25.5 53 11.9 43 43 N 22 35 29.82 1010 10 16 N/A
12:55 pm 12:55 Sunny 79 26 53 11.9 41 41 N 20 31 29.83 1010 10 16 N/A
1:15 pm 13:15 Sunny 80 26.4 53 11.9 41 41 N 20 31 29.83 1010 10 16 N/A
1:35 pm 13:35 Sunny 80 26.4 53 11.7 40 40 N 21 33 29.83 1010 10 16 N/A
1:55 pm 13:55 Sunny 80 26.5 53 11.9 40 40 N 21 33 29.82 1010 10 16 N/A
2:15 pm 14:15 Sunny 80 26.9 53 11.8 39 39 N 16 26 29.82 1010 10 16 N/A
2:35 pm 14:35 Sunny 81 27.2 53 11.9 39 39 N 21 33 29.82 1010 10 16 N/A
2:55 pm 14:55 Sunny 81 27.2 54 12.4 40 40 NNE 16 26 29.82 1010 10 16 N/A
3:15 pm 15:15 Sunny 81 27.2 54 12 39 39 NNE 16 26 29.82 1010 10 16 N/A
3:35 pm 15:35 Sunny 82 27.7 53 11.9 37 37 N 15 24 29.83 1010 10 16 N/A
3:55 pm 15:55 Sunny 82 27.8 53 11.9 37 37 NNE 16 26 29.82 1010 10 16 N/A
4:15 pm 16:15 Sunny 82 27.7 52 11.1 36 36 NNE 15 24 29.83 1010 10 16 N/A
4:35 pm 16:35 Sunny 82 27.8 52 11.2 36 36 NNE 14 22 29.82 1010 10 16 N/A
4:55 pm 16:55 Sunny 82 27.7 52 11.3 36 36 NNE 17 28 29.84 1010 10 16 N/A
5:15 pm 17:15 Sunny 82 27.8 51 10.8 35 35 N 17 28 29.82 1010 10 16 N/A
5:35 pm 17:35 Sunny 82 27.7 51 10.5 34 34 NNE 16 26 29.83 1010 10 16 N/A
5:55 pm 17:55 Sunny 82 27.5 51 10.7 35 35 N 10 17 29.83 1010 10 16 N/A
6:15 pm 18:15 Sunny 81 27.3 51 10.6 35 35 N 13 20 29.83 1010 10 16 N/A
6:35 pm 18:35 Sunny 82 27.5 50 10 33 33 NNE 12 19 29.83 1010 10 16 N/A
6:55 pm 18:55 Sunny 81 27 49 9.7 34 34 N 12 19 29.83 1010 10 16 N/A
7:15 pm 19:15 Sunny 81 27 49 9.7 34 34 N 12 19 29.83 1010 10 16 N/A
7:35 pm 19:35 Sunny 80 26.6 49 9.5 34 34 N 10 17 29.83 1010 10 16 N/A
7:55 pm 19:55 Sunny 79 26 49 9.7 36 36 N 10 17 29.84 1010 10 16 N/A
8:15 pm 20:15 Sunny 78 25.4 49 9.5 37 37 N 7 11 29.85 1011 10 16 N/A
8:35 pm 20:35 Sunny 74 23.6 51 10.4 43 43 NNE 7 11 29.88 1012 10 16 N/A
8:55 pm 20:55 Sunny 72 22.2 51 10.7 48 48 NNE 7 11 29.90 1012 10 16 N/A
9:15 pm 21:15 Clear 70 21 52 11 53 53 NNE 6 9 29.91 1013 10 16 N/A
9:35 pm 21:35 Clear 68 20 52 11.2 57 57 NNE 6 9 29.94 1014 10 16 N/A
9:55 pm 21:55 Clear 66 19.1 52 11.3 61 61 NNE 5 7 29.94 1014 10 16 N/A
10:15 pm 22:15 Clear 65 18.1 52 11.2 64 64 NNE 5 7 29.96 1015 10 16 N/A
10:35 pm 22:35 Clear 64 17.6 53 11.5 68 68 NNE 5 7 29.99 1015 10 16 N/A
10:55 pm 22:55 Clear 64 17.8 52 11 65 65 NNE 6 9 29.99 1015 10 16 N/A
11:15 pm 23:15 Clear 62 16.9 53 11.6 71 71 NNE 3 6 29.99 1016 10 16 N/A
11:35 pm 23:35 Clear 61 16.3 52 11 71 71 NE 8 13 30.00 1016 10 16 N/A
11:55 pm 23:55 Clear 61 16.1 52 11 72 72 NE 7 11 30.01 1016 10 16 N/A

Powered by AerisWeather